Flag for Germany Weather past 2 weeks in Schönebeck, Saxony-Anhalt, Germany

Now
61 °F

Scattered clouds.


Feels Like: 61 °F
Forecast: 51 / 67 °F
Wind: 5 mph from West

Location: Magdeburg

Current Time: Jul 30, 2015 at 9:12:04 PM

Latest Report: Jul 30, 2015 at 9:00 PM


Visibility: 31 mi

Pressure: 29.96 "Hg

Humidity: 61%

Dew point: 47 °F

Location of SchönebeckLocation

Historic Weather in Schönebeck — Graph

°F

Schönebeck temperature yesterday

Maximum temperature yesterday: 67 °F (at 3:00 PM)
Minimum temperature yesterday: 55 °F (at 6:00 AM)
Average temperature yesterday: 61 °F

Past Weeks' High & Low Weather Summary

 TemperatureHumidityPressure
High90 °F (Jul 17, 6:00 PM)97% (Jul 16, 4:00 AM)30.09 "Hg (Jul 16, 4:00 AM)
Low55 °F (Jul 29, 6:00 AM)36% (Jul 18, 7:00 PM)29.54 "Hg (Jul 25, 2:00 PM)
Average68 °F67%29.85 "Hg
* Reported Jul 15 8:00 PM — Jul 30 8:00 PM, Schönebeck, Weather by CustomWeather, © 2015

Note: Actual official high and low records may vary slightly from our data, if they occured in-between our weather recording intervals... More about our weather records

Advertising

Schönebeck weather history for previous 24 hours

 ConditionsComfort  
Time TempWeatherWind HumidityBarometerVisibility
8:00 PM
Thu, Jul 30
64 °FPartly sunny.5 mph55%29.94 "Hg31 mi
7:00 PM65 °FScattered clouds.7 mph50%29.92 "Hg37 mi
6:00 PM64 °FPartly sunny.8 mph53%29.92 "Hg37 mi
4:00 PM69 °FScattered clouds.8 mph42%29.89 "Hg31 mi
3:00 PM65 °FScattered clouds.7 mph49%29.90 "Hg31 mi
2:00 PM66 °FPartly sunny.7 mph47%29.89 "Hg31 mi
1:00 PM63 °FOvercast.7 mph53%29.89 "Hg31 mi
12:00 PM63 °FOvercast.7 mph54%29.88 "Hg37 mi
10:00 AM60 °FPartly sunny.8 mph65%29.86 "Hg31 mi
9:00 AM59 °FPartly sunny.8 mph67%29.85 "Hg31 mi
8:00 AM56 °FOvercast.7 mph73%29.83 "Hg31 mi
7:00 AM55 °FOvercast.6 mph75%29.83 "Hg31 mi
4:00 AM57 °FOvercast.8 mph67%29.81 "Hg34 mi
3:00 AM57 °FOvercast.7 mph68%29.80 "Hg37 mi
2:00 AM58 °FOvercast.7 mph67%29.79 "Hg43 mi
1:00 AM58 °FOvercast.6 mph67%29.78 "Hg43 mi
10:00 PM
Wed, Jul 29
59 °FPassing clouds.5 mph60%29.76 "Hg43 mi
9:00 PM61 °FPassing clouds.5 mph58%29.75 "Hg37 mi
Weather by CustomWeather, © 2015

See weather overviewHow to use our weather pages